"TOA5","MOW","CPU:UNC_MeetingWaters","DataHourly"
"TIMESTAMP","SondeTempC","SpCond","DOSat","DOmg","pH","Turb","BattVolt_Min"
"TS","","","","","","",""
"","Smp","Smp","Smp","Smp","Smp","Smp","Min"
"2006-11-01 00:00:00",13.3100004196,0.0209999997169,79.3000030518,8.30000019073,7.80000019073,12.1999998093,11.8900003433
"2006-11-01 01:00:00",13.3100004196,0.0209999997169,79.0999984741,8.27999973297,7.80000019073,13.3999996185,11.8800001144
"2006-11-01 02:00:00",13.4499998093,0.0209999997169,79.1999969482,8.26000022888,7.80000019073,12.5,11.8699998856
"2006-11-01 03:00:00",13.2299995422,0.0209999997169,79.0,8.27999973297,7.86000013351,15.6999998093,11.8599996567
"2006-11-01 04:00:00",12.8199996948,0.0209999997169,78.5999984741,8.31000041962,7.84999990463,13.5,11.8599996567
"2006-11-01 05:00:00",12.8599996567,0.0209999997169,78.3000030518,8.27999973297,7.84999990463,12.8999996185,11.8500003815
"2006-11-01 06:00:00",12.7600002289,0.0209999997169,78.0,8.27000045776,7.86000013351,13.3999996185,11.8400001526
"2006-11-01 07:00:00",11.6499996185,0.0209999997169,77.4000015259,8.39999961853,7.82999992371,12.8000001907,11.8400001526
"2006-11-01 08:00:00",11.1999998093,0.0209999997169,76.8000030518,8.43000030518,7.86000013351,12.6999998093,11.8299999237
"2006-11-01 09:00:00",11.7600002289,0.0209999997169,77.4000015259,8.39000034332,7.84999990463,12.3000001907,11.8400001526
"2006-11-01 10:00:00",12.9200000763,0.0209999997169,78.8000030518,8.31999969482,7.82999992371,12.5,11.8599996567
"2006-11-01 11:00:00",14.2100000381,0.0209999997169,79.9000015259,8.18999958038,7.82000017166,12.0,11.8699998856
"2006-11-01 12:00:00",15.4799995422,0.0209999997169,80.9000015259,8.06999969482,7.80000019073,14.1999998093,11.8999996185
"2006-11-01 13:00:00",17.2399997711,0.0209999997169,81.5999984741,7.84999990463,7.90000009537,12.5,12.1400003433
"2006-11-01 14:00:00",17.2700004578,0.019999999553,82.0,7.88000011444,7.82999992371,12.3999996185,12.1099996567
"2006-11-01 15:00:00",17.1299991608,0.0189999993891,81.9000015259,7.88999986649,7.82999992371,12.3999996185,12.1199998856
"2006-11-01 16:00:00",17.2900009155,0.0189999993891,82.0,7.86999988556,7.84999990463,11.8999996185,12.029999733
"2006-11-01 17:00:00",17.1900005341,0.0189999993891,81.9000015259,7.88000011444,7.84000015259,11.8000001907,12.0
"2006-11-01 18:00:00",16.7299995422,0.0179999992251,81.5999984741,7.92999982834,7.80999994278,12.3999996185,11.9600000381
"2006-11-01 19:00:00",16.2700004578,0.0179999992251,81.4000015259,7.98999977112,7.90999984741,13.8999996185,11.9399995804
"2006-11-01 20:00:00",15.9300003052,0.0179999992251,81.0,8.01000022888,7.92000007629,13.6999998093,11.9099998474
"2006-11-01 21:00:00",15.4200000763,0.0179999992251,80.6999969482,8.06000041962,7.88000011444,12.6999998093,11.8900003433
"2006-11-01 22:00:00",15.0600004196,0.0179999992251,80.4000015259,8.10000038147,7.88999986649,12.6000003815,11.8699998856
"2006-11-01 23:00:00",14.4399995804,0.0179999992251,79.9000015259,8.15999984741,7.90999984741,11.6999998093,11.8599996567
"2006-11-02 00:00:00",14.3999996185,0.0179999992251,79.5999984741,8.13000011444,7.88000011444,12.3000001907,11.8500003815
"2006-11-02 01:00:00",14.3199996948,0.0179999992251,79.5999984741,8.14000034332,7.86999988556,12.5,11.8400001526
"2006-11-02 02:00:00",14.220000267,0.0179999992251,79.5,8.14999961853,7.86999988556,13.3000001907,11.8299999237
"2006-11-02 03:00:00",14.4600000381,0.0189999993891,79.9000015259,8.14999961853,7.88000011444,12.8999996185,11.8199996948
"2006-11-02 04:00:00",14.6700000763,0.0189999993891,80.0,8.13000011444,7.88000011444,11.8999996185,11.8100004196
"2006-11-02 05:00:00",14.7600002289,0.0189999993891,80.0,8.10999965668,7.88000011444,11.8999996185,11.8100004196
"2006-11-02 06:00:00",14.4499998093,0.0189999993891,79.6999969482,8.14000034332,7.88999986649,11.6999998093,11.8000001907
"2006-11-02 07:00:00",14.4399995804,0.0189999993891,79.8000030518,8.14000034332,7.88000011444,11.3000001907,11.8000001907
"2006-11-02 08:00:00",14.2600002289,0.019999999553,79.6999969482,8.17000007629,7.90000009537,12.0,11.7899999619
"2006-11-02 09:00:00",14.6199998856,0.019999999553,80.1999969482,8.14999961853,7.84999990463,12.3999996185,11.8000001907
"2006-11-02 10:00:00",14.0900001526,0.0189999993891,79.6999969482,8.19999980927,8.06999969482,11.1999998093,11.8100004196
"2006-11-02 11:00:00",14.970000267,0.0179999992251,78.4000015259,7.90999984741,8.22000026703,12.6999998093,11.8100004196
"2006-11-02 12:00:00",13.0900001526,0.0189999993891,78.0,8.21000003815,8.44999980927,12.6999998093,11.8500003815
"2006-11-02 13:00:00",15.2100000381,0.0170000009239,77.8000030518,7.80999994278,8.28999996185,12.1999998093,12.1300001144
"2006-11-02 14:00:00",14.7399997711,0.0140000004321,77.6999969482,7.88000011444,8.22000026703,12.3000001907,12.1099996567
"2006-11-02 15:00:00",14.7299995422,0.0120000001043,77.8000030518,7.88999986649,7.96000003815,12.6000003815,12.0900001526
"2006-11-02 16:00:00",14.529999733,0.0109999999404,78.0999984741,7.96000003815,7.73000001907,11.6000003815,11.9899997711
"2006-11-02 17:00:00",14.1899995804,0.0109999999404,77.9000015259,8.0,7.73999977112,11.6999998093,11.9600000381
"2006-11-02 18:00:00",13.1599998474,0.0120000001043,77.6999969482,8.14999961853,7.80000019073,12.3999996185,11.9200000763
"2006-11-02 19:00:00",12.8299999237,0.0109999999404,71.6999969482,7.57999992371,7.94999980927,15.3000001907,11.8999996185
"2006-11-02 20:00:00",10.5900001526,0.0109999999404,75.0999984741,8.35999965668,7.96000003815,14.1999998093,11.8800001144
"2006-11-02 21:00:00",9.72000026703,0.0109999999404,74.0,8.40999984741,8.06000041962,17.6000003815,11.8500003815
"2006-11-02 22:00:00",9.43000030518,0.00999999977648,72.8000030518,8.31999969482,8.11999988556,13.8000001907,11.8299999237
"2006-11-02 23:00:00",9.34000015259,0.00999999977648,72.4000015259,8.31000041962,8.14999961853,12.8999996185,11.8000001907
"2006-11-03 00:00:00",8.35999965668,0.00899999961257,72.0,8.44999980927,8.21000003815,12.8999996185,11.779999733
"2006-11-03 01:00:00",7.69000005722,0.00800000037998,70.8000030518,8.44999980927,8.21000003815,14.0,11.7600002289
"2006-11-03 02:00:00",11.1499996185,0.0219999998808,71.9000015259,7.90000009537,8.64000034332,16.1000003815,11.75
"2006-11-03 03:00:00",6.78999996185,0.0270000007004,71.5,8.72999954224,8.80000019073,16.2999992371,11.7399997711
"2006-11-03 04:00:00",5.42000007629,0.0280000008643,69.1999969482,8.73999977112,8.77000045776,14.1999998093,11.6800003052
"2006-11-03 05:00:00",5.15000009537,0.0250000003725,68.8000030518,8.75,8.69999980927,14.6999998093,11.720000267
"2006-11-03 06:00:00",5.48000001907,0.0250000003725,68.0999984741,8.60000038147,8.65999984741,13.8000001907,11.7100000381
"2006-11-03 07:00:00",4.34000015259,0.0240000002086,67.0,8.71000003815,8.67000007629,14.1999998093,11.6999998093
"2006-11-03 08:00:00",4.59000015259,0.0230000000447,67.0,8.64999961853,8.67000007629,13.3999996185,11.6899995804
"2006-11-03 09:00:00",4.90999984741,0.0230000000447,67.6999969482,8.67000007629,8.61999988556,13.0,11.6999998093
"2006-11-03 10:00:00",4.94000005722,0.0219999998808,68.0999984741,8.69999980927,8.55000019073,13.3000001907,11.720000267
"2006-11-03 11:00:00",6.09000015259,0.0189999993891,68.0,8.44999980927,8.46000003815,12.3999996185,11.720000267
"2006-11-03 12:00:00",7.75,0.0170000009239,71.4000015259,8.51000022888,8.27000045776,12.5,11.7700004578
"2006-11-03 13:00:00",9.27000045776,0.0149999996647,74.6999969482,8.57999992371,7.88000011444,12.6000003815,12.2399997711
"2006-11-03 14:00:00",8.27000045776,0.0179999992251,73.8000030518,8.68000030518,8.64999961853,12.6999998093,12.2100000381
"2006-11-03 15:00:00",8.44999980927,0.0149999996647,71.8000030518,8.42000007629,8.60000038147,14.5,12.0600004196
"2006-11-03 16:00:00",8.80000019073,0.0140000004321,70.8000030518,8.22000026703,8.5,16.0,11.9499998093
"2006-11-03 17:00:00",8.47000026703,0.0130000002682,70.9000015259,8.31000041962,8.48999977112,17.0,11.9099998474
"2006-11-03 18:00:00",8.31000041962,0.0130000002682,73.0999984741,8.60000038147,8.52000045776,14.8000001907,11.8800001144
"2006-11-03 19:00:00",7.65000009537,0.0130000002682,71.5999984741,8.55000019073,8.55000019073,13.6999998093,11.8500003815
"2006-11-03 20:00:00",6.55999994278,0.0130000002682,70.8000030518,8.68999958038,8.60000038147,13.1000003815,11.8299999237
"2006-11-03 21:00:00",5.21999979019,0.0130000002682,70.3000030518,8.93000030518,8.57999992371,12.3999996185,11.7700004578
"2006-11-03 22:00:00",5.59999990463,0.0130000002682,68.6999969482,8.64999961853,8.56999969482,12.1999998093,11.7700004578
"2006-11-03 23:00:00",5.01000022888,0.0140000004321,69.4000015259,8.85999965668,8.56000041962,12.1999998093,11.75
"2006-11-04 00:00:00",4.51999998093,0.0140000004321,69.0,8.92000007629,8.57999992371,13.1999998093,11.720000267
"2006-11-04 01:00:00",3.98000001907,0.0140000004321,69.5999984741,9.13000011444,8.60999965668,12.8000001907,11.6999998093
"2006-11-04 02:00:00",3.43000006676,0.0149999996647,69.0999984741,9.18999958038,8.63000011444,11.3000001907,11.6800003052
"2006-11-04 03:00:00",3.53999996185,0.0149999996647,70.3000030518,9.32999992371,8.64999961853,12.1999998093,11.6599998474
"2006-11-04 04:00:00",3.93000006676,0.0149999996647,69.4000015259,9.11999988556,8.65999984741,12.8000001907,11.6599998474
"2006-11-04 05:00:00",2.74000000954,0.0140000004321,69.1999969482,9.39000034332,8.69999980927,12.0,11.6499996185
"2006-11-04 06:00:00",2.27999997139,0.0140000004321,70.0999984741,9.61999988556,8.72000026703,12.3999996185,11.6400003433
"2006-11-04 07:00:00",2.59999990463,0.0140000004321,67.5,9.18999958038,8.72000026703,12.1999998093,11.6300001144
"2006-11-04 08:00:00",2.04999995232,0.0140000004321,65.6999969482,9.07999992371,8.72999954224,11.6999998093,11.6400003433
"2006-11-04 09:00:00",2.88000011444,0.0140000004321,67.5999984741,9.13000011444,8.71000003815,11.3999996185,11.6800003052
"2006-11-04 10:00:00",4.17999982834,0.0140000004321,68.5,8.93999958038,8.68000030518,11.3999996185,11.7899999619
"2006-11-04 11:00:00",5.94999980927,0.0130000002682,69.3000030518,8.63000011444,8.64000034332,11.8000001907,11.8599996567
"2006-11-04 12:00:00",6.51000022888,0.0120000001043,69.9000015259,8.60000038147,8.61999988556,11.8000001907,11.8999996185
"2006-11-04 13:00:00",8.0,0.0109999999404,69.6999969482,8.26000022888,8.56999969482,11.3000001907,12.2700004578
"2006-11-04 14:00:00",8.69999980927,0.0109999999404,71.8000030518,8.35999965668,8.56000041962,11.5,12.2299995422
"2006-11-04 15:00:00",7.94000005722,0.00999999977648,70.5999984741,8.36999988556,8.60000038147,11.6999998093,12.029999733
"2006-11-04 16:00:00",8.53999996185,0.00999999977648,71.8000030518,8.39000034332,8.60999965668,11.1999998093,11.9300003052
"2006-11-04 17:00:00",8.60999965668,0.00999999977648,72.5999984741,8.47000026703,8.61999988556,11.3000001907,11.8900003433
"2006-11-04 18:00:00",7.80000019073,0.00999999977648,72.0,8.56999969482,8.64000034332,11.1000003815,11.8599996567
"2006-11-04 19:00:00",6.53000020981,0.00899999961257,70.0,8.59000015259,8.64000034332,11.5,11.8299999237
"2006-11-04 20:00:00",6.07999992371,0.00899999961257,68.8000030518,8.55000019073,8.61999988556,11.0,11.8100004196
"2006-11-04 21:00:00",5.26000022888,0.00999999977648,67.5,8.56000041962,8.59000015259,11.3000001907,11.7899999619
"2006-11-04 22:00:00",4.55000019073,0.00999999977648,66.8000030518,8.64000034332,8.56999969482,11.1999998093,11.7700004578
"2006-11-04 23:00:00",4.13000011444,0.00999999977648,66.1999969482,8.64999961853,8.55000019073,11.1000003815,11.7399997711
"2006-11-05 00:00:00",2.81999993324,0.00999999977648,66.4000015259,8.98999977112,8.52999973297,11.1000003815,11.7100000381
"2006-11-05 01:00:00",2.69000005722,0.0109999999404,65.5,8.89999961853,8.52999973297,11.5,11.6899995804
"2006-11-05 02:00:00",3.06999993324,0.00999999977648,64.8000030518,8.71000003815,8.55000019073,11.3000001907,11.6599998474
"2006-11-05 03:00:00",2.8599998951,0.0109999999404,64.8000030518,8.75,8.55000019073,13.8000001907,11.6499996185
"2006-11-05 04:00:00",2.5,0.0109999999404,64.3000030518,8.77000045776,8.57999992371,11.5,11.6400003433
"2006-11-05 05:00:00",2.09999990463,0.0109999999404,63.5999984741,8.77000045776,8.59000015259,11.0,11.6199998856
"2006-11-05 06:00:00",1.63999998569,0.0109999999404,63.9000015259,8.92000007629,8.61999988556,11.6999998093,11.6199998856
"2006-11-05 07:00:00",1.89999997616,0.0120000001043,63.2000007629,8.77000045776,8.63000011444,12.0,11.6099996567
"2006-11-05 08:00:00",1.45000004768,0.0120000001043,62.5999984741,8.78999996185,8.64999961853,11.3999996185,11.6000003815
"2006-11-05 09:00:00",2.45000004768,0.0130000002682,64.3000030518,8.77999973297,8.63000011444,11.8999996185,11.6000003815
"2006-11-05 10:00:00",3.20000004768,0.0130000002682,66.0999984741,8.85000038147,8.61999988556,11.6000003815,11.6499996185
"2006-11-05 11:00:00",5.44000005722,0.0140000004321,69.5999984741,8.78999996185,8.57999992371,11.5,11.7299995422
"2006-11-05 12:00:00",6.11000013351,0.0149999996647,70.8000030518,8.77999973297,8.53999996185,11.6000003815,11.8599996567
"2006-11-05 13:00:00",7.96000003815,0.0140000004321,71.5,8.47999954224,8.43999958038,11.8000001907,12.3299999237
"2006-11-05 14:00:00",9.85000038147,0.0120000001043,72.5999984741,8.22999954224,8.39000034332,10.6999998093,12.220000267
"2006-11-05 15:00:00",9.57999992371,0.00999999977648,72.1999969482,8.22999954224,8.51000022888,11.8000001907,12.0200004578
"2006-11-05 16:00:00",9.5,0.00999999977648,71.5,8.15999984741,8.60999965668,11.6999998093,11.9200000763
"2006-11-05 17:00:00",9.67000007629,0.00999999977648,73.5,8.36999988556,8.57999992371,11.1999998093,11.8900003433
"2006-11-05 18:00:00",9.11999988556,0.00999999977648,73.5999984741,8.47999954224,8.56999969482,11.8999996185,11.8500003815
"2006-11-05 19:00:00",7.53000020981,0.00899999961257,72.1999969482,8.64999961853,8.56999969482,12.0,11.8100004196
"2006-11-05 20:00:00",7.23000001907,0.00899999961257,70.3000030518,8.47999954224,8.56999969482,11.6000003815,11.8000001907
"2006-11-05 21:00:00",6.5,0.00899999961257,69.3000030518,8.52000045776,8.56999969482,12.6999998093,11.779999733
"2006-11-05 22:00:00",5.63999986649,0.00899999961257,70.0,8.80000019073,8.55000019073,12.0,11.75
"2006-11-05 23:00:00",5.32000017166,0.00899999961257,68.1999969482,8.63000011444,8.55000019073,11.8999996185,11.7299995422
"2006-11-06 00:00:00",4.86999988556,0.00999999977648,67.5,8.64999961853,8.53999996185,11.6000003815,11.6999998093
"2006-11-06 01:00:00",4.73000001907,0.00999999977648,67.0999984741,8.63000011444,8.51000022888,12.1000003815,11.6700000763
"2006-11-06 02:00:00",4.09000015259,0.00999999977648,67.5,8.82999992371,8.51000022888,11.8000001907,11.6499996185
"2006-11-06 03:00:00",4.09999990463,0.00999999977648,67.5999984741,8.82999992371,8.5,10.8999996185,11.6400003433
"2006-11-06 04:00:00",4.17000007629,0.00999999977648,67.4000015259,8.78999996185,8.48999977112,11.5,11.6300001144
"2006-11-06 05:00:00",3.79999995232,0.0109999999404,67.5,8.89999961853,8.48999977112,12.1999998093,11.6099996567
"2006-11-06 06:00:00",3.43000006676,0.0109999999404,66.9000015259,8.89999961853,8.48999977112,11.5,11.6000003815
"2006-11-06 07:00:00",3.61999988556,0.0120000001043,66.8000030518,8.84000015259,8.5,12.6000003815,11.5900001526
"2006-11-06 08:00:00",3.63000011444,0.0120000001043,66.0,8.73999977112,8.5,11.8999996185,11.5799999237
"2006-11-06 09:00:00",3.33999991417,0.0130000002682,67.6999969482,9.03999996185,8.51000022888,11.6999998093,11.6000003815
"2006-11-06 10:00:00",5.19000005722,0.0130000002682,70.0999984741,8.90999984741,8.51000022888,12.5,11.6199998856
"2006-11-06 11:00:00",7.05000019073,0.0140000004321,70.0,8.48999977112,8.47999954224,11.5,11.6800003052
"2006-11-06 12:00:00",8.63000011444,0.0140000004321,71.9000015259,8.39000034332,8.47000026703,10.8000001907,11.8100004196
"2006-11-06 13:00:00",10.5799999237,0.0140000004321,73.4000015259,8.17000007629,8.39000034332,11.1000003815,12.2600002289
"2006-11-06 14:00:00",11.6000003815,0.0130000002682,78.3000030518,8.52000045776,8.36999988556,11.3000001907,12.1000003815
"2006-11-06 15:00:00",11.2600002289,0.0130000002682,74.0999984741,8.11999988556,8.56999969482,12.1999998093,11.9899997711
"2006-11-06 16:00:00",11.4399995804,0.0140000004321,74.0999984741,8.09000015259,8.73999977112,12.6999998093,11.8999996185
"2006-11-06 17:00:00",11.3199996948,0.0140000004321,73.5999984741,8.06000041962,8.77000045776,11.8000001907,11.8599996567
"2006-11-06 18:00:00",11.0399999619,0.0130000002682,73.5999984741,8.10999965668,8.75,11.6000003815,11.8100004196
"2006-11-06 19:00:00",10.2399997711,0.0130000002682,72.4000015259,8.13000011444,8.76000022888,11.8000001907,11.7899999619
"2006-11-06 20:00:00",9.15999984741,0.0130000002682,72.0999984741,8.30000019073,8.81000041962,12.5,11.7700004578
"2006-11-06 21:00:00",9.32999992371,0.0130000002682,74.3000030518,8.52000045776,8.60000038147,13.3999996185,11.75
"2006-11-06 22:00:00",9.38000011444,0.0140000004321,75.0,8.59000015259,8.55000019073,15.5,11.7299995422
"2006-11-06 23:00:00",8.78999996185,0.0140000004321,73.5999984741,8.55000019073,8.56000041962,16.7000007629,11.720000267
"2006-11-07 00:00:00",8.11999988556,0.0140000004321,73.8000030518,8.71000003815,8.55000019073,14.8000001907,11.7100000381
"2006-11-07 01:00:00",8.03999996185,0.0140000004321,72.3000030518,8.56000041962,8.52000045776,12.8999996185,11.6800003052
"2006-11-07 02:00:00",7.46999979019,0.0140000004321,73.1999969482,8.77999973297,8.52000045776,13.6000003815,11.6599998474
"2006-11-07 03:00:00",8.02999973297,0.0140000004321,73.3000030518,8.67000007629,8.52000045776,12.1999998093,11.6400003433
"2006-11-07 04:00:00",8.43000030518,0.0149999996647,73.5,8.60999965668,8.48999977112,11.3000001907,11.6300001144
"2006-11-07 05:00:00",9.02000045776,0.0149999996647,74.0999984741,8.56000041962,8.47999954224,12.6000003815,11.6199998856
"2006-11-07 06:00:00",9.22000026703,0.0149999996647,74.8000030518,8.60000038147,8.47999954224,12.5,11.6099996567
"2006-11-07 07:00:00",9.55000019073,0.0149999996647,74.5999984741,8.51000022888,8.44999980927,11.3000001907,11.6099996567
"2006-11-07 08:00:00",9.31000041962,0.01600000076,74.5999984741,8.56000041962,8.43999958038,11.1999998093,11.6099996567
"2006-11-07 09:00:00",10.0900001526,0.01600000076,75.4000015259,8.48999977112,8.43000030518,11.1000003815,11.6099996567
"2006-11-07 10:00:00",10.720000267,0.0170000009239,75.8000030518,8.42000007629,8.40999984741,11.3999996185,11.6300001144
"2006-11-07 11:00:00",11.8100004196,0.231999993324,71.0999984741,7.69000005722,8.34000015259,52.0,11.6300001144
"2006-11-07 12:00:00",14.2399997711,0.167999997735,76.4000015259,7.82999992371,8.47999954224,530.900024414,11.6000003815
"2006-11-07 13:00:00",13.4300003052,0.11400000006,77.4000015259,8.06999969482,8.85000038147,261.700012207,11.6199998856
"2006-11-07 14:00:00",13.8500003815,0.116999998689,77.3000030518,7.98999977112,8.60999965668,283.600006104,11.6099996567
"2006-11-07 15:00:00",14.3800001144,0.122000001371,77.4000015259,7.90999984741,8.40999984741,195.399993896,11.5900001526
"2006-11-07 16:00:00",13.9600000381,0.108000002801,77.6999969482,8.01000022888,8.39000034332,283.799987793,11.5100002289
"2006-11-07 17:00:00",13.8800001144,0.0860000029206,78.3000030518,8.09000015259,8.34000015259,758.0,11.5699996948
"2006-11-07 18:00:00",13.9099998474,0.0879999995232,77.9000015259,8.05000019073,8.18999958038,264.5,11.5699996948
"2006-11-07 19:00:00",14.279999733,0.0930000022054,78.0,7.98999977112,8.07999992371,187.300003052,11.5600004196
"2006-11-07 20:00:00",14.3699998856,0.0920000001788,78.0,7.96999979019,8.02000045776,175.800003052,11.5500001907
"2006-11-07 21:00:00",14.0799999237,0.082999996841,77.6999969482,7.98999977112,7.90000009537,153.600006104,11.5500001907
"2006-11-07 22:00:00",14.6000003815,0.0860000029206,78.3000030518,7.96000003815,7.76999998093,138.5,11.5500001907
"2006-11-07 23:00:00",14.8400001526,0.0869999974966,77.9000015259,7.88000011444,7.71999979019,119.400001526,11.5399999619
"2006-11-08 00:00:00",15.1000003815,0.0900000035763,77.8000030518,7.82999992371,7.65999984741,97.8000030518,11.529999733
"2006-11-08 01:00:00",15.1899995804,0.0920000001788,77.0999984741,7.73999977112,7.69000005722,81.8000030518,11.529999733
"2006-11-08 02:00:00",15.3400001526,0.0949999988079,76.8000030518,7.69000005722,7.71000003815,67.4000015259,11.5200004578
"2006-11-08 03:00:00",15.4799995422,0.097000002861,76.6999969482,7.65999984741,7.73999977112,71.3000030518,11.5200004578
"2006-11-08 04:00:00",15.5699996948,0.10000000149,76.8000030518,7.65000009537,7.75,60.7999992371,11.5200004578
"2006-11-08 05:00:00",15.6599998474,0.101999998093,76.6999969482,7.61999988556,7.76999998093,61.2000007629,11.5100002289
"2006-11-08 06:00:00",16.2000007629,0.103000000119,77.0999984741,7.57999992371,7.80999994278,67.1999969482,11.5
"2006-11-08 07:00:00",16.4300003052,0.101999998093,76.5,7.48000001907,7.84999990463,52.2999992371,11.4899997711
"2006-11-08 08:00:00",16.1200008392,0.101999998093,75.5999984741,7.44000005722,7.80999994278,57.7000007629,11.4899997711
"2006-11-08 09:00:00",15.970000267,0.104000002146,75.6999969482,7.48000001907,7.78000020981,55.9000015259,11.5
"2006-11-08 10:00:00",15.970000267,0.107000000775,76.1999969482,7.53000020981,7.76999998093,52.2000007629,11.4899997711
"2006-11-08 11:00:00",16.1000003815,0.109999999404,76.8000030518,7.57000017166,7.78999996185,128.300003052,11.4899997711
"2006-11-08 12:00:00",16.0300006866,0.111000001431,76.0,7.5,7.90000009537,273.700012207,11.4899997711
"2006-11-08 13:00:00",15.8699998856,0.112999998033,76.5,7.57000017166,7.94999980927,159.899993896,11.5100002289
"2006-11-08 14:00:00",15.8999996185,0.115000002086,76.5999984741,7.57999992371,7.98000001907,102.300003052,11.4799995422
"2006-11-17 13:00:00",-6999.0,0.115000002086,76.5999984741,7.57999992371,7.98000001907,102.300003052,12.6300001144
"2006-11-17 14:00:00",-6999.0,0.115000002086,76.5999984741,7.57999992371,7.98000001907,102.300003052,12.3800001144
"2006-11-17 15:00:00",-6999.0,0.115000002086,76.5999984741,7.57999992371,7.98000001907,102.300003052,12.3500003815
"2006-11-17 16:00:00",-6999.0,0.115000002086,76.5999984741,7.57999992371,7.98000001907,102.300003052,12.1199998856
"2006-11-17 17:00:00",-6999.0,0.115000002086,76.5999984741,7.57999992371,7.98000001907,102.300003052,12.0600004196
"2006-11-17 18:00:00",-6999.0,0.115000002086,76.5999984741,7.57999992371,7.98000001907,102.300003052,12.0399999619
"2006-11-17 19:00:00",-6999.0,0.115000002086,76.5999984741,7.57999992371,7.98000001907,102.300003052,12.029999733
"2006-11-17 20:00:00",-6999.0,0.115000002086,76.5999984741,7.57999992371,7.98000001907,102.300003052,12.0
"2006-11-17 21:00:00",-6999.0,0.115000002086,76.5999984741,7.57999992371,7.98000001907,102.300003052,11.9899997711
"2006-11-17 22:00:00",-6999.0,0.115000002086,76.5999984741,7.57999992371,7.98000001907,102.300003052,11.9799995422
"2006-11-17 23:00:00",-6999.0,0.115000002086,76.5999984741,7.57999992371,7.98000001907,102.300003052,11.970000267
"2006-11-18 00:00:00",-6999.0,0.115000002086,76.5999984741,7.57999992371,7.98000001907,102.300003052,11.9499998093
"2006-11-18 01:00:00",-6999.0,0.115000002086,76.5999984741,7.57999992371,7.98000001907,102.300003052,11.9399995804
"2006-11-18 02:00:00",-6999.0,0.115000002086,76.5999984741,7.57999992371,7.98000001907,102.300003052,11.9200000763
"2006-11-18 03:00:00",-6999.0,0.115000002086,76.5999984741,7.57999992371,7.98000001907,102.300003052,11.9099998474
"2006-11-18 04:00:00",-6999.0,0.115000002086,76.5999984741,7.57999992371,7.98000001907,102.300003052,11.8999996185
"2006-11-18 05:00:00",-6999.0,0.115000002086,76.5999984741,7.57999992371,7.98000001907,102.300003052,11.8900003433
"2006-11-18 06:00:00",-6999.0,0.115000002086,76.5999984741,7.57999992371,7.98000001907,102.300003052,11.8800001144